Bowling Green, KY

11:40 PM CDT on June 24, 2018 (GMT -0500)
Bowling Green-Warren County Regional

Weather History for KBWG - November, 2017

Change the Weather History Date:

Tuesday, November 14, 2017

  Actual Average Record
Temperature  
Mean Temperature 45 °F 49 °F  
Max Temperature 57 °F 60 °F 80 °F (1964)
Min Temperature 33 °F 38 °F 15 °F (1986)
Degree Days  
Heating Degree Days 20 16  
Month to date heating degree days 164 193  
Since 1 July heating degree days 384 456  
Cooling Degree Days 0 0  
Month to date cooling degree days 12 0  
Year to date cooling degree days 1600 1488  
Moisture  
Dew Point 37 °F    
Average Humidity 74    
Maximum Humidity 96    
Minimum Humidity 51    
Precipitation  
Precipitation 0.00 in 0.14 in 1.13 in (1993)
Month to date precipitation 1.45 1.80  
Year to date precipitation 48.47 42.67  
Snow  
Snow 0.00 in 0.00 in 0.50 in (1906)
Month to date snowfall 0.0 0.0  
Since 1 July snowfall T T  
Since 1 September snowfall T T  
Snow Depth 0.00 in    
Sea Level Pressure  
Sea Level Pressure 30.27 in    
Wind  
Wind Speed 3 mph (ENE)    
Max Wind Speed 13 mph    
Max Gust Speed 17 mph    
Visibility 10 miles    
Events      
T = Trace of Precipitation, MM = Missing Value Source: NWS Daily Summary

Daily Weather History Graph

Daily Weather History Graph

Search for Another Location

Airport or City:

Astronomy

Nov. 14, 2017 Rise Set
Actual Time 6:23 AM CST 4:36 PM CST
Civil Twilight 5:55 AM CST 5:04 PM CST
Nautical Twilight 5:24 AM CST 5:35 PM CST
Astronomical Twilight 4:53 AM CST 6:06 PM CST
Moon 2:30 AM CST (11/14) 2:54 PM CST (11/14)
Length of Visible Light 11h 08m
Length of Day
10h 13m
Waning Crescent, 13% of the Moon is Illuminated
Nov 14
Waning Crescent
Nov 18
New
Nov 26
First Quarter
Dec 3
Full
Dec 10
Last Quarter

Hourly Weather History & Observations

Time (CST) Temp. Windchill Dew Point Humidity Pressure Visibility Wind Dir Wind Speed Gust Speed Precip Events Conditions
12:53 AM 43.0 °F 40.3 °F 36.0 °F 76% 30.37 in 10.0 mi East 4.6 mph - N/A   Overcast
1:44 AM 41.0 °F - 36.0 °F 82% 30.35 in 10.0 mi Calm Calm - N/A   Scattered Clouds
1:53 AM 42.1 °F - 36.0 °F 79% 30.36 in 10.0 mi Calm Calm - N/A   Partly Cloudy
2:53 AM 41.0 °F - 36.0 °F 82% 30.35 in 10.0 mi Calm Calm - N/A   Clear
3:53 AM 39.0 °F - 35.1 °F 86% 30.34 in 10.0 mi Calm Calm - N/A   Clear
4:53 AM 35.1 °F - 32.0 °F 89% 30.36 in 10.0 mi Calm Calm - N/A   Clear
5:53 AM 35.1 °F - 33.1 °F 92% 30.35 in 8.0 mi Calm Calm - N/A   Clear
6:53 AM 34.0 °F 29.8 °F 32.0 °F 92% 30.36 in 7.0 mi NE 4.6 mph - N/A   Clear
7:53 AM 42.1 °F 37.1 °F 37.9 °F 85% 30.37 in 10.0 mi ENE 8.1 mph - N/A   Clear
8:53 AM 46.0 °F 41.4 °F 39.0 °F 76% 30.35 in 10.0 mi East 9.2 mph - N/A   Clear
9:53 AM 48.9 °F - 39.0 °F 69% 30.34 in 10.0 mi ESE 9.2 mph - N/A   Clear
10:53 AM 52.0 °F - 39.0 °F 61% 30.32 in 10.0 mi East 5.8 mph - N/A   Clear
11:53 AM 54.0 °F - 37.9 °F 55% 30.28 in 10.0 mi East 8.1 mph - N/A   Clear
12:53 PM 55.0 °F - 39.0 °F 55% 30.25 in 10.0 mi East 4.6 mph - N/A   Clear
1:53 PM 57.0 °F - 39.0 °F 51% 30.23 in 10.0 mi North - - N/A   Clear
2:53 PM 57.0 °F - 39.0 °F 51% 30.21 in 10.0 mi ENE 5.8 mph - N/A   Clear
3:53 PM 55.0 °F - 37.9 °F 53% 30.20 in 10.0 mi East 3.5 mph - N/A   Clear
4:53 PM 51.1 °F - 37.9 °F 61% 30.20 in 10.0 mi NE 3.5 mph - N/A   Clear
5:53 PM 45.0 °F 43.5 °F 37.0 °F 74% 30.20 in 8.0 mi NE 3.5 mph - N/A   Clear
6:53 PM 45.0 °F 42.6 °F 37.0 °F 74% 30.19 in 10.0 mi ENE 4.6 mph - N/A   Clear
7:53 PM 46.0 °F 44.8 °F 37.0 °F 71% 30.19 in 10.0 mi NE 3.5 mph - N/A   Clear
8:53 PM 43.0 °F - 37.0 °F 80% 30.21 in 10.0 mi Calm Calm - N/A   Clear
9:53 PM 39.0 °F - 35.1 °F 86% 30.17 in 10.0 mi Calm Calm - N/A   Clear
10:53 PM 37.0 °F - 35.1 °F 93% 30.16 in 10.0 mi Calm Calm - N/A   Clear
11:53 PM 37.0 °F - 35.1 °F 93% 30.16 in 10.0 mi Calm Calm - N/A   Clear